Preview of NWS' New Version of Forecast
This preview is not operational and should not be used for support decisions.

Regional Weather Roundup (RWR)

Issued by Gray - Portland, ME (GYX)

                            
000
ASUS41 KGYX 221905
RWRGYX
WEATHER ROUNDUP FOR MAINE AND NEW HAMPSHIRE
NATIONAL WEATHER SERVICE GRAY ME
300 PM EDT FRI MAR 22 2019

MEZ002-005-006-010-012-015-018-020-021-024-026-027-029-222000-
MAINE
  
CITY           SKY/WX    TMP DP  RH WIND       PRES   REMARKS
PORTLAND       LGT RAIN  38  36  92 N20G25    28.98F FOG              
SANFORD        LGT RAIN  37  35  92 N17G24    29.00F FOG              
BAR HARBOR     LGT RAIN  43  41  93 NE12      29.01F FOG              
WISCASSET      LGT RAIN  39  39 100 VRB6      29.00F FOG              
ROCKLAND       LGT RAIN  39  39 100 NE13G18   28.99F FOG              
FRYEBURG       LGT RAIN  37  35  92 N8        29.06F FOG              
LEWISTONAUBURN LGT RAIN  36  35  96 N15       29.02F FOG              
AUGUSTA        LGT RAIN  36  35  96 N18       29.03F FOG              
WATERVILLE     LGT RAIN  37  35  92 NE16      29.01F                  
BANGOR         LGT RAIN  38  37  97 N14       29.04F                  
GREENVILLE       N/A     34  31  88 N14       29.09F                  
MILLINOCKET    NOT AVBL                                               
HOULTON        RAIN      36  35  96 NE14G22   29.22F FOG              
PRESQUE ISLE   LGT RAIN  35  34  96 NE17G23   29.30F FOG              
FRENCHVILLE    LGT SNOW  35  30  82 NE18G29   29.37F VSB 3/4          
CARIBOU        LGT RAIN  36  33  89 NE10G22   29.32F FOG              
$$

NHZ002-005-008-009-011-012-014-222000-
NEW HAMPSHIRE
  
CITY           SKY/WX    TMP DP  RH WIND       PRES   REMARKS
PORTSMOUTH     LGT RAIN  39  36  87 NW20      29.00F                  
ROCHESTER      LGT RAIN  38  37  97 NW18      29.02F                  
NASHUA         CLOUDY    40  37  89 W14G21    29.08F                  
MANCHESTER     CLOUDY    40  36  86 NW14G23   29.06F                  
CONCORD        CLOUDY    39  38  96 NW13      29.08F                  
LACONIA        RAIN      39  37  92 VRB3      29.07F                  
PLYMOUTH       LGT RAIN  37  33  85 W12G23    29.10F                  
BERLIN         SNOW      34  33  96 CALM      29.11F VSB 1/2          
WHITEFIELD     NOT AVBL                                               
JAFFREY        CLOUDY    37  34  89 NW15G24   29.10F                  
KEENE          LGT RAIN  38  35  89 NW10      29.16F                  
LEBANON        FLURRIES  36  31  82 NW5       29.16F                  
MT WASHINGTON  SNOW      19  19 100 N33         N/A  VSB 1/8 WCI   0  
$$

VTZ005-007-008-222000-
VERMONT
  
CITY           SKY/WX    TMP DP  RH WIND       PRES   REMARKS
ST JOHNSBURY     N/A     33  33 100 MISG      29.16F                  
MONTPELIER     LGT SNOW  32  32 100 N7        29.24F VSB 3/4          
BURLINGTON     SNOW      34  31  88 N16       29.29F VSB 1/2          
$$

MAZ007-012-024-CTZ003-RIZ002-NYZ038-NYZ072-222000-
SOUTHERN NEW ENGLAND AND NY
  
CITY           SKY/WX    TMP DP  RH WIND       PRES   REMARKS
BOSTON         LGT RAIN  41  37  86 W15G23    29.07F                  
WORCESTER      LGT RAIN  36  33  89 W21G31    29.10F                  
NANTUCKET      CLOUDY    42  40  92 W16G22    29.10R FOG              
PROVIDENCE     LGT RAIN  39  39 100 NW14G20   29.14S                  
HARTFORD       CLOUDY    43  36  76 NW18      29.21F                  
ALBANY         DRIZZLE   42  34  73 W23G36    29.29F                  
NEW YORK CITY  PTSUNNY   45  31  58 NW25G38   29.37R                  
$$

ANZ081-ANZ082-ANZ150-NHZ014-MEZ023>029-222000-
COASTAL MARINE OBSERVATIONS
  
STATION/POSITION TIME  TEMP    WIND        PRES    WAVE
                       AIR SEA DIR/SP/G            HT/PER
                 (UTC) (F)     (DEG/KT/KT) (MB)    (FT/S)
MOUNT DESERT ROC 1800   40      40/ 22/ 24  983.2F
MATINICUS ROCK   1800   39      80/ 22/ 24  982.2F
ISLE OF SHOALS   1800   37     310/ 26/ 29  981.6F
JEFFREYS LEDGE   1838      39                N/A    10/ 8
CASHES LEDGE BUO 1850   41 40               979.2F   9/ 8
$$

.............KEY..............
   WCI - WIND CHILL
   TC  - TEMPERATURE IN CELSIUS
   VSB - VISIBILITY IN MILES
   HX  - HEAT INDEX
   FAIR- INDICATES FEW OR NO CLOUDS BELOW 12,000 FT, WITH NO 
         SIGNIFICANT WEATHER AND/OR OBSTRUCTIONS TO VISIBILITY.